| time (UTC) | temp C | wind direction | speed KPH | gust KPH | rain 1hr cm | rain 24hr cm | rain mn cm | humidity % | barometer mb |
| 20260506091819 | 6 | 64 | 0.0 | 0.0 | 0.00 | 0.71 | 0.71 | 96 | 1009.6 |
| 20260506091316 | 6 | 64 | 0.0 | 0.0 | 0.00 | 0.71 | 0.71 | 96 | 1009.8 |
| 20260506090814 | 6 | 328 | 0.0 | 3.2 | 0.00 | 0.71 | 0.71 | 96 | 1009.9 |
| 20260506090311 | 6 | 305 | 1.6 | 4.8 | 0.00 | 0.71 | 0.71 | 96 | 1009.9 |
| 20260506085807 | 6 | 310 | 1.6 | 3.2 | 0.00 | 0.71 | 0.71 | 96 | 1010.0 |
| 20260506085306 | 6 | 287 | 1.6 | 4.8 | 0.00 | 0.71 | 0.71 | 96 | 1010.0 |
| 20260506084800 | 6 | 290 | 0.0 | 0.0 | 0.00 | 0.71 | 0.71 | 96 | 1009.5 |
| 20260506084257 | 6 | 310 | 0.0 | 0.0 | 0.13 | 0.71 | 0.71 | 96 | 1009.5 |
| 20260506083754 | 6 | 309 | 0.0 | 0.0 | 0.13 | 0.71 | 0.71 | 96 | 1009.4 |
| 20260506083252 | 6 | 323 | 0.0 | 0.0 | 0.00 | 0.69 | 0.69 | 96 | 1009.6 |
| 20260506082749 | 6 | 329 | 0.0 | 1.6 | 0.18 | 0.69 | 0.69 | 96 | 1009.6 |
| 20260506082249 | 6 | 315 | 0.0 | 0.0 | 0.18 | 0.69 | 0.69 | 96 | 1010.0 |
| 20260506081747 | 6 | 304 | 0.0 | 1.6 | 0.00 | 0.66 | 0.66 | 96 | 1009.9 |
| 20260506081244 | 6 | 1 | 0.0 | 0.0 | 0.00 | 0.66 | 0.66 | 96 | 1009.7 |
| 20260506080742 | 6 | 310 | 0.0 | 0.0 | 0.00 | 0.66 | 0.66 | 96 | 1009.8 |
| 20260506080238 | 6 | 328 | 0.0 | 1.6 | 0.00 | 0.66 | 0.66 | 96 | 1009.9 |
| 20260506073222 | 7 | 345 | 3.2 | 3.2 | 0.13 | 0.66 | 0.66 | 96 | 1009.3 |
| 20260506072719 | 6 | 334 | 0.0 | 0.0 | 0.00 | 0.64 | 0.64 | 97 | 1009.5 |
| 20260506072217 | 6 | 352 | 0.0 | 1.6 | 0.00 | 0.64 | 0.64 | 97 | 1009.5 |
| 20260506071714 | 6 | 358 | 1.6 | 3.2 | 0.18 | 0.64 | 0.64 | 97 | 1009.2 |
| 20260506071213 | 7 | 344 | 1.6 | 3.2 | 0.18 | 0.64 | 0.64 | 97 | 1009.6 |
| 20260506070709 | 7 | 298 | 1.6 | 3.2 | 0.00 | 0.61 | 0.61 | 97 | 1009.9 |
| 20260506070206 | 7 | 296 | 1.6 | 3.2 | 0.13 | 0.61 | 0.61 | 97 | 1010.2 |
| 20260506062143 | 7 | 307 | 0.0 | 0.0 | 0.30 | 0.51 | 0.51 | 97 | 1009.6 |
| 20260506061639 | 7 | 328 | 3.2 | 4.8 | 0.30 | 0.48 | 0.48 | 97 | 1009.6 |
| 20260506061136 | 7 | 324 | 3.2 | 4.8 | 0.30 | 0.46 | 0.46 | 97 | 1009.7 |
| 20260506060635 | 7 | 311 | 3.2 | 3.2 | 0.13 | 0.43 | 0.43 | 97 | 1009.8 |
| 20260506060131 | 7 | 325 | 3.2 | 6.4 | 0.18 | 0.41 | 0.41 | 97 | 1010.1 |
| 20260506051103 | 7 | 337 | 0.0 | 0.0 | 0.30 | 0.18 | 0.18 | 97 | 1009.9 |
| 20260506050601 | 7 | 326 | 0.0 | 1.6 | 0.13 | 0.15 | 0.15 | 97 | 1009.8 |
| 20260506045052 | 7 | 335 | 0.0 | 1.6 | 0.00 | 0.10 | 0.10 | 97 | 1009.5 |
| 20260506044550 | 7 | 317 | 0.0 | 0.0 | 0.13 | 0.10 | 0.10 | 97 | 1009.5 |
| 20260506044046 | 7 | 316 | 1.6 | 1.6 | 0.13 | 0.10 | 0.10 | 97 | 1009.8 |
| 20260506043543 | 7 | 315 | 0.0 | 0.0 | 0.00 | 0.08 | 0.08 | 97 | 1009.6 |
| 20260506043042 | 7 | 352 | 0.0 | 1.6 | 0.00 | 0.08 | 0.08 | 97 | 1009.5 |
| 20260506042540 | 7 | 308 | 0.0 | 0.0 | 0.18 | 0.08 | 0.08 | 97 | 1009.7 |
| 20260506042038 | 7 | 309 | 0.0 | 0.0 | 0.18 | 0.08 | 0.08 | 97 | 1009.7 |
| 20260506041536 | 7 | 308 | 0.0 | 1.6 | 0.13 | 0.05 | 0.05 | 97 | 1009.8 |
| 20260506041033 | 7 | 305 | 0.0 | 1.6 | 0.30 | 0.05 | 0.05 | 97 | 1009.7 |
| 20260506040531 | 7 | 339 | 0.0 | 3.2 | 0.18 | 0.03 | 0.03 | 97 | 1009.9 |
| 20260506040026 | 7 | 333 | 0.0 | 0.0 | 0.13 | 0.00 | 0.00 | 97 | 1009.9 |
| 20260506035524 | 8 | 323 | 0.0 | 0.0 | 0.30 | 2.74 | 2.74 | 97 | 1009.9 |
| 20260506035020 | 8 | 308 | 0.0 | 0.0 | 0.18 | 2.72 | 2.72 | 97 | 1010.0 |
| 20260506034518 | 8 | 306 | 3.2 | 3.2 | 0.13 | 2.69 | 2.69 | 97 | 1010.0 |
| 20260506034015 | 8 | 299 | 1.6 | 1.6 | 0.18 | 2.67 | 2.67 | 97 | 1009.9 |
| 20260506033512 | 8 | 322 | 0.0 | 1.6 | 0.36 | 2.67 | 2.67 | 97 | 1009.9 |
| 20260506033009 | 8 | 21 | 0.0 | 0.0 | 0.30 | 2.64 | 2.64 | 97 | 1009.8 |
| 20260506032506 | 8 | 348 | 0.0 | 0.0 | 0.18 | 2.59 | 2.59 | 97 | 1009.6 |
| 20260506032002 | 8 | 14 | 0.0 | 0.0 | 0.30 | 2.59 | 2.59 | 97 | 1009.6 |
| 20260506031500 | 8 | 332 | 1.6 | 3.2 | 0.30 | 2.57 | 2.57 | 97 | 1009.7 |
| 20260506030957 | 8 | 345 | 0.0 | 1.6 | 0.30 | 2.54 | 2.54 | 97 | 1009.9 |
| 20260506030455 | 8 | 338 | 1.6 | 1.6 | 0.30 | 2.51 | 2.51 | 97 | 1009.9 |
| 20260506025952 | 8 | 306 | 1.6 | 1.6 | 0.18 | 2.49 | 2.49 | 97 | 1010.0 |
| 20260506025449 | 8 | 48 | 1.6 | 3.2 | 0.13 | 2.46 | 2.46 | 97 | 1009.8 |
| 20260506024945 | 8 | 83 | 0.0 | 0.0 | 0.30 | 2.44 | 2.44 | 97 | 1010.1 |
| 20260506024442 | 8 | 111 | 0.0 | 0.0 | 0.30 | 2.41 | 2.41 | 97 | 1010.0 |
| 20260506023938 | 8 | 121 | 0.0 | 0.0 | 0.30 | 2.39 | 2.39 | 97 | 1010.0 |
| 20260506023435 | 8 | 121 | 0.0 | 0.0 | 0.48 | 2.36 | 2.36 | 97 | 1010.0 |
| 20260506022932 | 8 | 152 | 0.0 | 0.0 | 0.30 | 2.31 | 2.31 | 97 | 1010.2 |
| 20260506022429 | 8 | 128 | 0.0 | 0.0 | 0.43 | 2.29 | 2.29 | 97 | 1010.1 |
| 20260506021927 | 8 | 234 | 0.0 | 0.0 | 0.48 | 2.26 | 2.26 | 97 | 1010.1 |
| 20260506021424 | 8 | 272 | 0.0 | 0.0 | 0.48 | 2.21 | 2.21 | 97 | 1010.3 |
| 20260506020921 | 8 | 255 | 0.0 | 0.0 | 0.43 | 2.18 | 2.18 | 97 | 1010.0 |
| 20260506020419 | 8 | 213 | 0.0 | 0.0 | 0.30 | 2.13 | 2.13 | 97 | 1010.0 |
| 20260506015916 | 8 | 164 | 0.0 | 0.0 | 0.30 | 2.11 | 2.11 | 97 | 1010.1 |
| 20260506015414 | 8 | 302 | 1.6 | 3.2 | 0.30 | 2.08 | 2.08 | 97 | 1010.1 |
| 20260506014910 | 8 | 285 | 0.0 | 1.6 | 0.30 | 2.06 | 2.06 | 97 | 1009.9 |
| 20260506014407 | 8 | 289 | 1.6 | 3.2 | 0.48 | 2.03 | 2.03 | 97 | 1010.0 |
| 20260506013904 | 8 | 282 | 1.6 | 3.2 | 0.30 | 1.98 | 1.98 | 97 | 1010.1 |
| 20260506013402 | 8 | 301 | 0.0 | 0.0 | 0.13 | 1.96 | 1.96 | 97 | 1009.8 |
| 20260506012857 | 8 | 284 | 0.0 | 0.0 | 0.18 | 1.93 | 1.93 | 97 | 1009.8 |
| 20260506012354 | 8 | 26 | 0.0 | 0.0 | 0.30 | 1.93 | 1.93 | 97 | 1009.5 |
| 20260506011851 | 8 | 304 | 0.0 | 0.0 | 0.30 | 1.91 | 1.91 | 97 | 1009.5 |
| 20260506011348 | 8 | 353 | 0.0 | 0.0 | 0.30 | 1.88 | 1.88 | 97 | 1009.5 |
| 20260506010845 | 8 | 308 | 0.0 | 1.6 | 0.13 | 1.85 | 1.85 | 97 | 1009.4 |
| 20260506010344 | 8 | 302 | 3.2 | 3.2 | 0.18 | 1.83 | 1.83 | 96 | 1009.6 |
| 20260506005840 | 8 | 303 | 0.0 | 0.0 | 0.13 | 1.80 | 1.80 | 97 | 1009.6 |
| 20260506005337 | 8 | 319 | 0.0 | 0.0 | 0.13 | 1.80 | 1.80 | 97 | 1009.4 |
| 20260506004833 | 8 | 311 | 0.0 | 0.0 | 0.18 | 1.78 | 1.78 | 97 | 1009.4 |
| 20260506004331 | 8 | 338 | 0.0 | 0.0 | 0.30 | 1.78 | 1.78 | 97 | 1009.5 |
| 20260506003827 | 8 | 347 | 0.0 | 0.0 | 0.13 | 1.75 | 1.75 | 97 | 1009.4 |
| 20260506003323 | 8 | 28 | 0.0 | 1.6 | 0.18 | 1.73 | 1.73 | 96 | 1009.4 |
| 20260506002820 | 8 | 350 | 0.0 | 0.0 | 0.36 | 1.73 | 1.73 | 96 | 1009.1 |
| 20260506002316 | 8 | 37 | 0.0 | 0.0 | 0.30 | 1.70 | 1.70 | 96 | 1009.4 |
| 20260506001812 | 8 | 356 | 0.0 | 0.0 | 0.13 | 1.68 | 1.68 | 96 | 1009.3 |
| 20260506001309 | 8 | 311 | 0.0 | 1.6 | 0.00 | 1.65 | 1.65 | 96 | 1009.2 |
| 20260506000806 | 8 | 333 | 1.6 | 3.2 | 0.18 | 1.65 | 1.65 | 96 | 1009.2 |
| 20260506000304 | 8 | 321 | 0.0 | 1.6 | 0.18 | 1.65 | 1.65 | 96 | 1009.1 |
| 20260505235800 | 9 | 348 | 0.0 | 0.0 | 0.13 | 1.63 | 1.63 | 96 | 1009.3 |
| 20260505235258 | 9 | 358 | 0.0 | 0.0 | 0.30 | 1.63 | 1.63 | 96 | 1009.1 |
| 20260505234755 | 9 | 308 | 0.0 | 0.0 | 0.13 | 1.57 | 1.57 | 96 | 1009.3 |
| 20260505234252 | 9 | 324 | 0.0 | 0.0 | 0.30 | 1.57 | 1.57 | 96 | 1009.1 |
| 20260505233749 | 9 | 336 | 3.2 | 4.8 | 0.18 | 1.55 | 1.55 | 96 | 1009.2 |
| 20260505233247 | 9 | 22 | 0.0 | 0.0 | 0.13 | 1.52 | 1.52 | 96 | 1009.4 |
| 20260505232744 | 9 | 329 | 0.0 | 0.0 | 0.13 | 1.52 | 1.52 | 96 | 1009.3 |
| 20260505232241 | 9 | 326 | 0.0 | 3.2 | 0.18 | 1.50 | 1.50 | 96 | 1009.5 |
| 20260505231737 | 9 | 6 | 1.6 | 3.2 | 0.18 | 1.50 | 1.50 | 96 | 1009.6 |
| 20260505231237 | 9 | 330 | 0.0 | 3.2 | 0.13 | 1.47 | 1.47 | 96 | 1009.6 |
| 20260505230735 | 9 | 325 | 0.0 | 0.0 | 0.13 | 1.47 | 1.47 | 96 | 1009.4 |
| 20260505230231 | 9 | 326 | 1.6 | 6.4 | 0.00 | 1.45 | 1.45 | 96 | 1009.3 |
| 20260505225727 | 9 | 344 | 3.2 | 9.7 | 0.00 | 1.45 | 1.45 | 96 | 1009.2 |
| 20260505225225 | 9 | 317 | 1.6 | 3.2 | 0.18 | 1.45 | 1.45 | 96 | 1009.1 |
| 20260505224720 | 9 | 18 | 0.0 | 0.0 | 0.18 | 1.45 | 1.45 | 96 | 1009.1 |
| 20260505224218 | 9 | 348 | 3.2 | 4.8 | 0.13 | 1.42 | 1.42 | 96 | 1008.8 |
| 20260505223715 | 9 | 336 | 0.0 | 3.2 | 0.13 | 1.42 | 1.42 | 96 | 1008.8 |
| 20260505223211 | 9 | 338 | 3.2 | 4.8 | 0.18 | 1.40 | 1.40 | 96 | 1009.0 |
| 20260505222707 | 9 | 327 | 1.6 | 3.2 | 0.18 | 1.40 | 1.40 | 96 | 1009.2 |
| 20260505222203 | 9 | 350 | 1.6 | 3.2 | 0.00 | 1.37 | 1.37 | 96 | 1009.0 |
| 20260505221701 | 9 | 342 | 1.6 | 4.8 | 0.00 | 1.37 | 1.37 | 96 | 1008.9 |
| 20260505221157 | 9 | 33 | 1.6 | 3.2 | 0.18 | 1.37 | 1.37 | 96 | 1008.9 |
| 20260505220654 | 10 | 347 | 3.2 | 6.4 | 0.18 | 1.37 | 1.37 | 96 | 1008.7 |
| 20260505220152 | 10 | 17 | 3.2 | 3.2 | 0.00 | 1.35 | 1.35 | 96 | 1008.6 |
| 20260505215650 | 10 | 340 | 3.2 | 4.8 | 0.00 | 1.35 | 1.35 | 96 | 1008.8 |
| 20260505215147 | 10 | 322 | 3.2 | 9.7 | 0.00 | 1.35 | 1.35 | 96 | 1008.6 |
| 20260505214645 | 10 | 293 | 3.2 | 11.3 | 0.00 | 1.35 | 1.35 | 96 | 1008.7 |
| 20260505214142 | 10 | 299 | 3.2 | 4.8 | 0.00 | 1.35 | 1.35 | 96 | 1008.6 |
| 20260505213640 | 10 | 341 | 8.0 | 11.3 | 0.13 | 1.35 | 1.35 | 95 | 1008.7 |
| 20260505213136 | 10 | 291 | 0.0 | 3.2 | 0.13 | 1.35 | 1.35 | 96 | 1008.8 |
| 20260505212632 | 10 | 333 | 0.0 | 3.2 | 0.18 | 1.32 | 1.32 | 95 | 1009.0 |
| 20260505212130 | 10 | 310 | 1.6 | 1.6 | 0.30 | 1.32 | 1.32 | 95 | 1008.9 |
| 20260505211627 | 10 | 308 | 0.0 | 1.6 | 0.30 | 1.27 | 1.27 | 95 | 1009.0 |
| 20260505211124 | 10 | 306 | 3.2 | 3.2 | 0.13 | 1.24 | 1.24 | 95 | 1008.8 |
| 20260505210620 | 10 | 323 | 3.2 | 3.2 | 0.30 | 1.22 | 1.22 | 95 | 1008.6 |
| 20260505210118 | 10 | 341 | 3.2 | 4.8 | 0.43 | 1.19 | 1.19 | 95 | 1008.6 |
| 20260505205615 | 10 | 312 | 4.8 | 6.4 | 0.79 | 1.17 | 1.17 | 95 | 1008.8 |
| 20260505205113 | 10 | 289 | 3.2 | 3.2 | 0.66 | 1.12 | 1.12 | 95 | 1008.6 |
| 20260505204609 | 10 | 286 | 1.6 | 3.2 | 0.48 | 1.04 | 1.04 | 95 | 1008.9 |
| 20260505204107 | 10 | 304 | 3.2 | 3.2 | 0.61 | 1.02 | 1.02 | 95 | 1008.6 |
| 20260505203603 | 10 | 322 | 1.6 | 4.8 | 0.89 | 0.97 | 0.97 | 94 | 1008.8 |
| 20260505203101 | 10 | 346 | 1.6 | 3.2 | 0.79 | 0.89 | 0.89 | 94 | 1008.8 |
| 20260505202556 | 10 | 341 | 6.4 | 9.7 | 0.30 | 0.79 | 0.79 | 94 | 1008.6 |
| 20260505202053 | 10 | 302 | 1.6 | 3.2 | 0.18 | 0.74 | 0.74 | 94 | 1008.6 |
| 20260505201549 | 10 | 301 | 3.2 | 4.8 | 0.18 | 0.74 | 0.74 | 94 | 1008.6 |
| 20260505201047 | 10 | 329 | 3.2 | 4.8 | 0.00 | 0.71 | 0.71 | 94 | 1008.7 |
| 20260505200545 | 10 | 317 | 6.4 | 9.7 | 0.18 | 0.71 | 0.71 | 94 | 1008.4 |
| 20260505200042 | 10 | 298 | 1.6 | 4.8 | 0.18 | 0.71 | 0.71 | 94 | 1008.5 |
| 20260505195538 | 11 | 332 | 6.4 | 6.4 | 0.30 | 0.69 | 0.69 | 94 | 1008.5 |
| 20260505195036 | 11 | 308 | 3.2 | 6.4 | 0.30 | 0.69 | 0.69 | 94 | 1008.2 |
| 20260505194532 | 11 | 43 | 1.6 | 3.2 | 0.13 | 0.64 | 0.64 | 94 | 1008.9 |
| 20260505194027 | 11 | 306 | 1.6 | 3.2 | 0.13 | 0.64 | 0.64 | 94 | 1009.1 |
| 20260505193525 | 11 | 15 | 1.6 | 3.2 | 0.18 | 0.61 | 0.61 | 94 | 1008.9 |
| 20260505193022 | 11 | 310 | 1.6 | 1.6 | 0.13 | 0.58 | 0.58 | 94 | 1009.1 |
| 20260505192521 | 11 | 283 | 0.0 | 1.6 | 0.43 | 0.58 | 0.58 | 93 | 1009.1 |
| 20260505192018 | 11 | 305 | 1.6 | 1.6 | 0.48 | 0.56 | 0.56 | 93 | 1009.2 |
| 20260505191511 | 11 | 298 | 1.6 | 3.2 | 0.30 | 0.51 | 0.51 | 92 | 1009.4 |
| 20260505191009 | 11 | 303 | 1.6 | 4.8 | 0.30 | 0.48 | 0.48 | 92 | 1009.4 |
| 20260505190503 | 11 | 285 | 0.0 | 1.6 | 0.18 | 0.46 | 0.46 | 91 | 1009.4 |
| 20260505185958 | 11 | 293 | 4.8 | 4.8 | 0.18 | 0.43 | 0.43 | 91 | 1009.3 |
| 20260505185456 | 11 | 295 | 1.6 | 3.2 | 0.30 | 0.43 | 0.43 | 90 | 1009.3 |
| 20260505184951 | 11 | 279 | 1.6 | 3.2 | 0.30 | 0.41 | 0.41 | 90 | 1008.9 |
| 20260505184449 | 11 | 300 | 1.6 | 3.2 | 0.30 | 0.38 | 0.38 | 89 | 1009.2 |
| 20260505183945 | 11 | 305 | 0.0 | 1.6 | 0.13 | 0.36 | 0.36 | 88 | 1009.1 |
| 20260505183442 | 11 | 270 | 1.6 | 3.2 | 0.18 | 0.33 | 0.33 | 88 | 1009.3 |
| 20260505182939 | 11 | 315 | 1.6 | 3.2 | 0.18 | 0.33 | 0.33 | 88 | 1009.0 |
| 20260505182437 | 11 | 297 | 3.2 | 4.8 | 0.00 | 0.30 | 0.30 | 88 | 1008.8 |
| 20260505181932 | 11 | 305 | 1.6 | 3.2 | 0.00 | 0.30 | 0.30 | 88 | 1008.9 |
| 20260505181430 | 11 | 318 | 3.2 | 3.2 | 0.00 | 0.30 | 0.30 | 88 | 1008.9 |
| 20260505180927 | 11 | 294 | 1.6 | 1.6 | 0.00 | 0.30 | 0.30 | 88 | 1008.8 |
| 20260505180423 | 11 | 253 | 0.0 | 3.2 | 0.13 | 0.30 | 0.30 | 88 | 1008.7 |
| 20260505175920 | 12 | 350 | 0.0 | 1.6 | 0.18 | 0.28 | 0.28 | 89 | 1008.7 |
| 20260505175416 | 12 | 260 | 1.6 | 3.2 | 0.18 | 0.28 | 0.28 | 89 | 1008.7 |
| 20260505174912 | 12 | 246 | 3.2 | 4.8 | 0.30 | 0.25 | 0.25 | 89 | 1008.7 |
| 20260505174409 | 12 | 190 | 1.6 | 3.2 | 0.43 | 0.25 | 0.25 | 90 | 1008.5 |
| 20260505173901 | 12 | 287 | 1.6 | 3.2 | 0.30 | 0.20 | 0.20 | 89 | 1008.8 |
| 20260505173357 | 12 | 303 | 1.6 | 6.4 | 0.13 | 0.15 | 0.15 | 89 | 1008.9 |
| 20260505172853 | 12 | 290 | 3.2 | 4.8 | 0.30 | 0.15 | 0.15 | 88 | 1008.6 |
| 20260505172352 | 12 | 277 | 4.8 | 11.3 | 0.36 | 0.13 | 0.13 | 88 | 1009.1 |
| 20260505171850 | 13 | 267 | 1.6 | 4.8 | 0.30 | 0.10 | 0.10 | 87 | 1008.9 |
| 20260505171348 | 13 | 290 | 3.2 | 4.8 | 0.30 | 0.08 | 0.08 | 86 | 1008.8 |
| 20260505170845 | 13 | 279 | 3.2 | 9.7 | 0.30 | 0.05 | 0.05 | 85 | 1008.9 |
| 20260505170342 | 14 | 297 | 1.6 | 4.8 | 0.00 | 0.00 | 0.00 | 84 | 1008.8 |
| 20260505165837 | 15 | 282 | 4.8 | 14.5 | 0.00 | 0.00 | 0.00 | 82 | 1009.1 |
| 20260505165332 | 15 | 291 | 9.7 | 11.3 | 0.00 | 0.00 | 0.00 | 80 | 1009.0 |
| 20260505164829 | 15 | 247 | 9.7 | 12.9 | 0.00 | 0.00 | 0.00 | 78 | 1009.1 |
| 20260505164325 | 15 | 303 | 3.2 | 14.5 | 0.00 | 0.00 | 0.00 | 77 | 1008.9 |
| 20260505163823 | 15 | 253 | 4.8 | 4.8 | 0.00 | 0.00 | 0.00 | 78 | 1009.0 |
| 20260505163322 | 15 | 276 | 8.0 | 11.3 | 0.00 | 0.00 | 0.00 | 78 | 1009.0 |
| 20260505162819 | 15 | 222 | 1.6 | 6.4 | 0.00 | 0.00 | 0.00 | 77 | 1008.9 |
| 20260505162315 | 15 | 204 | 4.8 | 16.1 | 0.00 | 0.00 | 0.00 | 75 | 1009.1 |
| 20260505161813 | 15 | 257 | 4.8 | 6.4 | 0.00 | 0.00 | 0.00 | 75 | 1008.9 |
| 20260505161310 | 15 | 293 | 6.4 | 9.7 | 0.00 | 0.00 | 0.00 | 75 | 1008.9 |
| 20260505160807 | 15 | 294 | 4.8 | 9.7 | 0.00 | 0.00 | 0.00 | 75 | 1008.9 |
| 20260505160305 | 15 | 279 | 9.7 | 16.1 | 0.00 | 0.00 | 0.00 | 75 | 1008.7 |
| 20260505153244 | 16 | 322 | 8.0 | 11.3 | 0.00 | 0.00 | 0.00 | 75 | 1008.7 |
| 20260505152741 | 16 | 294 | 6.4 | 12.9 | 0.00 | 0.00 | 0.00 | 75 | 1008.5 |
| 20260505152237 | 16 | 302 | 3.2 | 11.3 | 0.00 | 0.00 | 0.00 | 75 | 1008.7 |
| 20260505151731 | 16 | 296 | 12.9 | 17.7 | 0.00 | 0.00 | 0.00 | 75 | 1008.7 |
| 20260505151229 | 16 | 12 | 6.4 | 17.7 | 0.00 | 0.00 | 0.00 | 74 | 1008.5 |
| 20260505150726 | 16 | 321 | 6.4 | 14.5 | 0.00 | 0.00 | 0.00 | 74 | 1008.4 |
| 20260505150223 | 16 | 339 | 9.7 | 27.4 | 0.00 | 0.00 | 0.00 | 73 | 1008.6 |
| 20260505140651 | 17 | 204 | 6.4 | 9.7 | 0.00 | 0.00 | 0.00 | 68 | 1006.8 |
| 20260505140149 | 17 | 217 | 8.0 | 38.6 | 0.00 | 0.00 | 0.00 | 68 | 1006.7 |
| 20260505130112 | 17 | 300 | 4.8 | 9.7 | 0.00 | 0.00 | 0.00 | 70 | 1006.6 |
| 20260505124602 | 16 | 196 | 8.0 | 16.1 | 0.00 | 0.00 | 0.00 | 72 | 1006.9 |
| 20260505124058 | 16 | 161 | 6.4 | 12.9 | 0.00 | 0.00 | 0.00 | 74 | 1006.7 |
| 20260505123554 | 16 | 153 | 12.9 | 17.7 | 0.00 | 0.00 | 0.00 | 75 | 1006.9 |
| 20260505123051 | 16 | 225 | 6.4 | 11.3 | 0.00 | 0.00 | 0.00 | 75 | 1006.8 |
| 20260505122548 | 15 | 317 | 3.2 | 9.7 | 0.00 | 0.00 | 0.00 | 76 | 1006.8 |
| 20260505122045 | 15 | 241 | 4.8 | 16.1 | 0.00 | 0.00 | 0.00 | 77 | 1006.8 |
| 20260505121541 | 15 | 144 | 6.4 | 9.7 | 0.00 | 0.00 | 0.00 | 78 | 1006.9 |
| 20260505121038 | 15 | 199 | 4.8 | 12.9 | 0.00 | 0.00 | 0.00 | 77 | 1006.8 |
| 20260505120534 | 15 | 315 | 4.8 | 12.9 | 0.00 | 0.00 | 0.00 | 76 | 1006.7 |
| 20260505120030 | 15 | 255 | 3.2 | 9.7 | 0.00 | 0.00 | 0.00 | 76 | 1006.8 |
| 20260505115525 | 15 | 169 | 3.2 | 14.5 | 0.00 | 0.00 | 0.00 | 75 | 1006.8 |
| 20260505115023 | 15 | 322 | 9.7 | 14.5 | 0.00 | 0.00 | 0.00 | 75 | 1006.7 |
| 20260505114520 | 15 | 250 | 6.4 | 9.7 | 0.00 | 0.00 | 0.00 | 74 | 1006.6 |
| 20260505114016 | 15 | 203 | 3.2 | 9.7 | 0.00 | 0.00 | 0.00 | 74 | 1006.4 |
| 20260505113512 | 15 | 230 | 3.2 | 12.9 | 0.00 | 0.00 | 0.00 | 74 | 1006.1 |
| 20260505113009 | 15 | 224 | 8.0 | 12.9 | 0.00 | 0.00 | 0.00 | 73 | 1005.9 |
| 20260505112505 | 15 | 196 | 3.2 | 6.4 | 0.00 | 0.00 | 0.00 | 74 | 1005.8 |
| 20260505112003 | 15 | 225 | 4.8 | 4.8 | 0.00 | 0.00 | 0.00 | 74 | 1005.6 |
| 20260505111501 | 15 | 224 | 3.2 | 3.2 | 0.00 | 0.00 | 0.00 | 74 | 1005.4 |
| 20260505110958 | 15 | 260 | 3.2 | 4.8 | 0.00 | 0.00 | 0.00 | 73 | 1005.5 |
| 20260505110455 | 15 | 341 | 1.6 | 3.2 | 0.00 | 0.00 | 0.00 | 73 | 1005.0 |
| 20260505101921 | 15 | 296 | 1.6 | 9.7 | 0.00 | 0.00 | 0.00 | 74 | 1004.5 |
| 20260505101421 | 15 | 303 | 3.2 | 9.7 | 0.00 | 0.00 | 0.00 | 74 | 1004.3 |
| 20260505100916 | 15 | 226 | 1.6 | 6.4 | 0.00 | 0.00 | 0.00 | 75 | 1004.3 |
| 20260505100413 | 15 | 207 | 3.2 | 4.8 | 0.00 | 0.00 | 0.00 | 75 | 1004.1 |
| 20260505095909 | 15 | 289 | 3.2 | 6.4 | 0.00 | 0.00 | 0.00 | 76 | 1004.0 |
| 20260505095406 | 15 | 240 | 1.6 | 9.7 | 0.00 | 0.00 | 0.00 | 76 | 1004.3 |
| 20260505094903 | 15 | 218 | 3.2 | 11.3 | 0.00 | 0.00 | 0.00 | 77 | 1004.2 |
| 20260505094400 | 15 | 209 | 4.8 | 4.8 | 0.00 | 0.00 | 0.00 | 78 | 1004.5 |
| 20260505093855 | 15 | 158 | 3.2 | 3.2 | 0.00 | 0.00 | 0.00 | 78 | 1004.4 |
| 20260505093353 | 15 | 236 | 1.6 | 4.8 | 0.00 | 0.00 | 0.00 | 78 | 1004.7 |
| 20260505092850 | 15 | 173 | 4.8 | 4.8 | 0.00 | 0.00 | 0.00 | 78 | 1004.6 |
| 20260505092348 | 15 | 200 | 3.2 | 6.4 | 0.00 | 0.00 | 0.00 | 79 | 1004.9 |